Naval Air Station Kingsville

Airport
ICAO code: 
KNQI
Summary
ICAO Region: 
NAM
Territory: 
Location: 
Kingsville, Texas,
Coordinates: 
Aerial View: 
27° 30' 26.003" N, 97° 48' 35.003" W
Airport LOS: 
Parallel Runway Operation
Metar
Observation
KNQI 241625Z 33010KT 1SM -RA BR OVC005 09/09 A2997 RMK AO2 SFC VIS 5 P0002 T00940089 $
Station
Kingsville, Naval Air Station
Date/Time
2022-01-24 16:25:00
Wind direction
330°
Wind speed
10 kts
Lowest cloud amount
overcast
Temperature
9.4°C
Dew point
8.9°C
Humidity
96%
Weather condition
light

Description

Naval Air Station Kingsville or NAS Kingsville,is a military airport located 5 km east of Kingsville, Texas.

Climatology

Humid “subtropical” climate (Köppen climate classification Cfa) - characterized by hot, humid summers and mild winters. Most rainfall occurs during summer and is often associated with thunderstorms and occasional tropical storms (hurricanes).

Runways

Designator Length Width Surface Rops
13L/31R 2438 61 PEM No/No
13R/31L 2438 61 PEM No/No
17L/35R 2438 61 PEM No/No
17R/35L 2438 61 PEM No/No
Airport map: 
Aerial View: 

SKYbrary Partners:

Safety knowledge contributed by: